Regional Weather Roundup
Issued by NWS

Home | Current Version | Previous Version | Text Only | Print | Product List | Glossary On
Versions: 1 2 3 4 5 6 7 8 9 10 11 12 13 14 15 16 17 18 19 20 21 22 23 24 25 26 27 28 29 30 31 32 33 34 35 36 37 38 39 40 41 42 43 44 45 46 47 48 49 50
000
ASUS43 KBIS 290310
RWRND

NORTH DAKOTA REGIONAL WEATHER ROUNDUP
NATIONAL WEATHER SERVICE BISMARCK ND
1000 PM CDT TUE MAR 28 2017

NOTE: "FAIR" INDICATES FEW OR NO CLOUDS BELOW 12,000 FEET WITH NO
SIGNIFICANT WEATHER AND/OR OBSTRUCTIONS TO VISIBILITY.


NDZ001>003-009>011-017-290400-
NORTHWEST NORTH DAKOTA

CITY           SKY/WX    TMP DP  RH WIND       PRES   REMARKS
WILLISTON      FAIR      37  36  96 W3        30.10R FOG
MINOT          MOCLDY    48  40  73 E9        30.11R
MINOT AFB      CLOUDY    42  40  92 NW12      30.12R
$$

NDZ018>021-031>035-040>046-290400-
SOUTHWEST NORTH DAKOTA

CITY           SKY/WX    TMP DP  RH WIND       PRES   REMARKS
BISMARCK       FAIR      47  38  71 SE8       30.15R
DICKINSON      CLOUDY    41  39  93 CALM      30.10S
GARRISON         N/A     41  37  86 SE8       30.10R
HETTINGER ARPT MOCLDY    44  39  82 SE10      30.13R
$$

NDZ004>008-012>016-024-026-027-054-290400-
NORTHEAST NORTH DAKOTA

CITY           SKY/WX    TMP DP  RH WIND       PRES   REMARKS
GRAND FORKS    CLOUDY    39  38  96 NW5       30.21S
GRND FRKS AFB  CLOUDY    37  37 100 N6        30.22S
DEVILS LAKE    FAIR      38  36  92 SE7       30.19R
$$

NDZ022-023-025-028>030-036>039-047>053-290400-
SOUTHEAST NORTH DAKOTA

CITY           SKY/WX    TMP DP  RH WIND       PRES   REMARKS
FARGO          CLOUDY    45  39  79 N6        30.20R
JAMESTOWN      FAIR      42  37  82 E7        30.18S
$$




USA.gov is the U.S. government's official web portal to all federal, state and local government web resources and services.